Regional Weather Roundup
Issued by NWS Grand Forks, ND

Home | Current Version | Previous Version | Text Only | Print | Product List | Glossary Off
Versions: 1 2 3 4 5 6 7 8 9 10 11 12 13 14 15 16 17 18 19 20 21 22 23 24 25 26 27 28 29 30 31 32 33 34 35 36 37 38 39 40 41 42 43 44 45 46 47 48 49 50

000
ASUS43 KFGF 171810
RWRFGF
PRAIRIE TO PINES  WEATHER ROUNDUP
NATIONAL WEATHER SERVICE EASTERN NORTH DAKOTA/GRAND FORKS ND
100 PM CDT THU APR 17 2014

 **SATELLITE DATA USED TO AUGMENT SKY COVER AT AUTOMATED STATIONS**
 *****  WEATHER ACROSS EASTERN NORTH DAKOTA  *****

CITY           SKY/WX    TMP DP  RH WIND       PRES   REMARKS
GRAND FORKS    SUNNY     39   6  25 NE9       30.34F
6HR MIN TEMP:  21; 6HR MAX TEMP:  39;

GRAND FRKS AFB SUNNY     38   7  28 VRB6      30.34F
GRAND FRKS NWS   N/A     39 N/A N/A NE9         N/A
DEVILS LAKE    SUNNY     36   9  32 S6        30.32S
6HR MIN TEMP:  18; 6HR MAX TEMP:  36;

FARGO          SUNNY     41  14  33 NW8       30.32F
WAHPETON ARPT  CLEAR     39   7  26 CALM      30.32S
$$

 ***** WEATHER ACROSS CENTRAL AND WESTERN NORTH DAKOTA  *****

CITY           SKY/WX    TMP DP  RH WIND       PRES   REMARKS
BISMARCK       SUNNY     41  16  36 SE10      30.26F
6HR MIN TEMP:  24; 6HR MAX TEMP:  41;

MINOT          SUNNY     38  15  39 SE12G20   30.25F
6HR MIN TEMP:  22; 6HR MAX TEMP:  38;

JAMESTOWN      SUNNY     39   8  27 CALM      30.29F
6HR MIN TEMP:  18; 6HR MAX TEMP:  39;

MINOT AFB      PTSUNNY   36  19  48 SE10      30.25F
GARRISON         N/A     37  14  38 SE14      30.23F
WILLISTON      CLOUDY    38  23  55 SE17      30.15F
6HR MIN TEMP:  27; 6HR MAX TEMP:  38;

DICKINSON      CLOUDY    38  25  59 SE18G29   30.13F
6HR MIN TEMP:  27; 6HR MAX TEMP:  38;

HETTINGER      CLOUDY    32  26  78 SE18      30.16S WCI  20
6HR MIN TEMP:  26; 6HR MAX TEMP:  32; 6HR PCP: TRACE;

$$

 *****  OTHER AIRPORT OBSERVATIONS IN OUR AREA  *****

CITY           SKY/WX    TMP DP  RH WIND       PRES   REMARKS
WALHALLA         N/A     36   1  23 NE7       30.36F
GRAFTON AIRPOR FAIR      36   9  32 N5        30.36F
VALLEY CITY AR NOT AVBL
CANDO          FAIR      36   5  27 S8        30.32F
CAVALIER APRT  FAIR      36   7  30 E6        30.36F
GWINNER        CLEAR     41  12  30 NE6       30.32F
SHEYENNE NWR     N/A     43   8  23 SE3       29.95S
ROLLA          FAIR      32  12  43 SE5       30.30F
 ***** THE ABOVE OBSERVATIONS ARE NON NWS ARE NOT QUALITY
       CONTROLLED AND MAY MIS-REPORT RAIN FOR SNOW...
$$

  *****  WEATHER ACROSS NORTHERN MINNESOTA  *****

CITY           SKY/WX    TMP DP  RH WIND       PRES   REMARKS
FLAG ISLAND    SUNNY     32  10  40 N8        30.32F WCI  25
WARROAD        SUNNY     34   9  35 E6        30.33F
ROSEAU         SUNNY     37   1  22 NE6       30.32F
HALLOCK        CLOUDY    37   7  28 N6        30.35F
THF RVR FALLS  SUNNY     37   7  28 CALM      30.32F
6HR MIN TEMP:  21; 6HR MAX TEMP:  37;

BAUDETTE       SUNNY     37  13  37 N9G20     30.30F
6HR MIN TEMP:  17; 6HR MAX TEMP:  37;

WASKISH        MOSUNNY   41  18  38 N5        30.28S
CROOKSTON      SUNNY     37  10  32 NW8       30.34F
$$
  *****  WEATHER ACROSS CENTRAL AND WEST MINNESOTA  *****

CITY           SKY/WX    TMP DP  RH WIND       PRES   REMARKS
FOSSTON        SUNNY     39  10  30 CALM      30.30F
BEMIDJI        SUNNY     38   5  24 NW12      30.26F
PARK RAPIDS    SUNNY     39   5  24 N7G17     30.24F
6HR MIN TEMP:  22; 6HR MAX TEMP:  39;

ELBOW LAKE     FAIR      37  17  44 N5        30.29F
6HR MIN TEMP:  19; 6HR MAX TEMP:  37;

WADENA         SUNNY     36  12  38 N9        30.26S
DETROIT LAKES  SUNNY     37  10  32 N7G16     30.28F
MOORHEAD       NOT AVBL
FERGUS FALLS   SUNNY     39   7  26 N9        30.28S
MORRIS MN      MOSUNNY   37  19  48 N7        30.30S
STAPLES        SUNNY     37  19  48 N6        30.25F
$$
  *****  WEATHER ELSEWHERE ACROSS MINNESOTA  *****

CITY           SKY/WX    TMP DP  RH WIND       PRES   REMARKS
DULUTH         CLOUDY    34  23  64 N10       30.20S
6HR MIN TEMP:  26; 6HR MAX TEMP:  34;

INTRNTL FALLS  PTSUNNY   36  20  52 NE9       30.28F
6HR MIN TEMP:  21; 6HR MAX TEMP:  36;

ELY            FLURRIES  32  23  69 NE9G16    30.21F WCI  24
CLOQUET        NOT AVBL
WHEATON        SUNNY     41  19  42 NW6       30.33F
BRAINERD       SUNNY     41  21  44 NW14      30.25F
6HR MIN TEMP:  30; 6HR MAX TEMP:  41;

HIBBING        CLOUDY    35  23  61 N13       30.23S
6HR MIN TEMP:  25; 6HR MAX TEMP:  35; 6HR PCP: TRACE;

ALEXANDRIA     SUNNY     35  18  49 N6        30.28S
6HR MIN TEMP:  21; 6HR MAX TEMP:  35;

SAINT CLOUD    SUNNY     37  22  54 N8        30.26F
6HR MIN TEMP:  28; 6HR MAX TEMP:  37;

MINNEAPOLIS    CLOUDY    35  28  75 N7        30.27S
6HR MIN TEMP:  29; 6HR MAX TEMP:  35;

$$

  *****  WEATHER ACROSS SOUTH DAKOTA  *****

CITY           SKY/WX    TMP DP  RH WIND       PRES   REMARKS
SIOUX FALLS    PTSUNNY   37  27  67 NE10      30.32F
6HR MIN TEMP:  20; 6HR MAX TEMP:  37;

BROOKINGS      NOT AVBL
WATERTOWN      PTSUNNY   36  16  44 N9        30.29F
6HR MIN TEMP:  15; 6HR MAX TEMP:  36;

HURON          SUNNY     38  19  46 VRB3      30.33F
6HR MIN TEMP:  15; 6HR MAX TEMP:  38;

SISSETON         N/A     38  18  44 CALM      30.31F
ABERDEEN       SUNNY     39  15  37 W5        30.31F
6HR MIN TEMP:  16; 6HR MAX TEMP:  40;

MITCHELL       SUNNY     42  17  36 SE5       30.33F
PIERRE         CLOUDY    40  19  43 SE13      30.27S
6HR MIN TEMP:  22; 6HR MAX TEMP:  41;

MOBRIDGE       PTSUNNY   38  17  42 S10       30.23F
RAPID CITY     PTSUNNY   46  32  58 S20G29    30.09F
6HR MIN TEMP:  30; 6HR MAX TEMP:  46;

$$

  *****  SOME WEATHER IN NEARBY STATES *****

CITY           SKY/WX    TMP DP  RH WIND       PRES   REMARKS
GLASGOW MT     CLOUDY    46  29  51 SE23      29.98F
6HR MIN TEMP:  24; 6HR MAX TEMP:  46;

GREAT FALLS MT CLOUDY    50  29  44 SW13      29.85F
6HR MIN TEMP:  35; 6HR MAX TEMP:  50;

CHEYENNE WY    SUNNY     52  14  22 NW13G20   30.07S
6HR MIN TEMP:  29; 6HR MAX TEMP:  52;

SCOTTSBLUFF NE CLOUDY    46  35  65 SE14      30.12F
6HR MIN TEMP:  33; 6HR MAX TEMP:  46;

OMAHA NE       MOSUNNY   46  26  45 NW9       30.32F
6HR MIN TEMP:  32; 6HR MAX TEMP:  46;

DES MOINES IA  PTSUNNY   44  29  55 N12       30.30F
6HR MIN TEMP:  35; 6HR MAX TEMP:  44;

DAVENPORT IA   PTSUNNY   50  35  56 W12G20    30.24S
6HR MIN TEMP:  39; 6HR MAX TEMP:  50;

CHICAGO IL     PTSUNNY   59  38  45 SW15G23   30.18S
EAU CLAIRE WI  CLOUDY    37  32  82 NW13      30.21R
6HR MIN TEMP:  35; 6HR MAX TEMP:  37;

LA CROSSE WI   CLOUDY    43  32  65 NW15      30.22R
6HR MIN TEMP:  41; 6HR MAX TEMP:  46;

$$

  *****  SOME NATIONAL WEATHER *****

CITY           SKY/WX    TMP DP  RH WIND       PRES   REMARKS
LA GUARDIA NY  PTSUNNY   43  22  43 NE13      30.71F
6HR MIN TEMP:  37; 6HR MAX TEMP:  45;

RALEIGH NC     PTSUNNY   59  31  34 NE12      30.51F
6HR MIN TEMP:  37; 6HR MAX TEMP:  59;

ATLANTA GA     PTSUNNY   59  34  39 E12       30.39F
6HR MIN TEMP:  42; 6HR MAX TEMP:  59;

NEW ORLEANS LA CLOUDY    66  59  78 E18       30.17F
6HR MIN TEMP:  58; 6HR MAX TEMP:  66;

OKLAHOMA CITY  CLOUDY    60  43  53 NE8       30.20F
6HR MIN TEMP:  51; 6HR MAX TEMP:  61;

ALBUQUERQUE NM PTSUNNY   61  27  27 NW6       30.16F
6HR MIN TEMP:  47; 6HR MAX TEMP:  61;

SALT LAKE CITY MOSUNNY   62  19  19 S16G24    30.03F
6HR MIN TEMP:  37; 6HR MAX TEMP:  63;

LOS ANGELES CA CLOUDY    64  51  62 SE6G16    29.93R
6HR MIN TEMP:  60; 6HR MAX TEMP:  64;

BOISE ID       SUNNY     64  27  24 SE21G26   29.90F



USA.gov is the U.S. government's official web portal to all federal, state and local government web resources and services.